Regional Weather Roundup
Issued by NWS

Home | Current Version | Previous Version | Text Only | Print | Product List | Glossary On
Versions: 1 2 3 4 5 6 7 8 9 10 11 12 13 14 15 16 17 18 19 20 21 22 23 24 25 26 27
000
ASUS45 KBOU 151610
RWRCO

WEATHER ROUNDUP FOR COLORADO
NATIONAL WEATHER SERVICE DENVER/BOULDER CO
900 AM MST FRI DEC 15 2017

NOTE: "FAIR" INDICATES FEW OR NO CLOUDS BELOW 12000 FEET WITH NO
SIGNIFICANT WEATHER AND/OR OBSTRUCTIONS TO VISIBILITY.

COZ001>005-013-030-031-151700-
...NORTHWEST COLORADO...

CITY           SKY/WX    TMP DP  RH WIND       PRES   REMARKS
CRAIG          FAIR      11   8  88 CALM      30.32R
HAYDEN         FAIR      16   9  74 E10       30.33R WCI   4
MEEKER         FAIR      20  13  74 CALM      30.33R
RABBIT EARS PA FAIR      18   9  68 W15G22    30.26R WCI   3
STEAMBOAT SPGS FAIR      11   8  86 CALM      30.32R
WALDEN         FAIR      18   5  57 S9        30.25S WCI   6
$$

COZ006>008-011-151700-
...WEST CENTRAL VALLEYS...

CITY           SKY/WX    TMP DP  RH WIND       PRES   REMARKS
GRAND JUNCTION FAIR      25  12  58 CALM      30.39R
MONTROSE       FAIR      22   9  57 S8        30.40S WCI  12
EAGLE          FAIR      11   4  73 CALM      30.44R
RIFLE          FAIR      18   9  68 CALM      30.41R
DELTA          FAIR      25   9  51 CALM      30.40S
NUCLA          FAIR      23   0  36 SE5       30.39S WCI  17
$$

COZ017>023-064>068-151700-
...SOUTHWEST COLORADO...

CITY           SKY/WX    TMP DP  RH WIND       PRES   REMARKS
DURANGO        FAIR      20  16  84 CALM      30.33R
CORTEZ         FAIR      22   2  42 NE5       30.35R WCI  16
PAGOSA SPRINGS FAIR      24   9  53 CALM      30.32R
TELLURIDE      FAIR      28 -12  17 SE3       30.34R
WOLF CREEK PAS FAIR      23 -17  16 CALM      30.36R
$$

COZ009-010-012-014-032>034-037-058>063-151700-
...CENTRAL COLORADO...

CITY           SKY/WX    TMP DP  RH WIND       PRES   REMARKS
ASPEN          FAIR      20   5  52 NW3       30.31R
BUENA VISTA    FAIR      19   2  47 CALM      30.24S
COPPER MTN     NOT AVBL
BERTHOUD PASS  FAIR      12   1  62 NW32      30.22R WCI -10
COTTONWOOD PAS FAIR      36  -8  15 S3        30.22S
GUNNISON       FAIR       9   2  73 CALM      30.40R
KREMMLING      FAIR       9   3  78 CALM      30.40R
LEADVILLE      FAIR      18  -2  41 NE6       30.26R WCI  10
MONARCH PASS   FAIR      12  -6  44 SW28G37   30.35R WCI  -9
SALIDA         FAIR      27   4  37 N8        30.29F WCI  19
SUNLIGHT       FAIR      19  -8  30 SW9       30.35R WCI   9
WILKERSON PASS FAIR      25  -6  26 NW9G23    30.23R WCI  15
$$

COZ069>075-151700-
...SAN LUIS VALLEY/SANGRE DE CRISTO MOUNTAINS...

CITY           SKY/WX    TMP DP  RH WIND       PRES   REMARKS
ALAMOSA        FAIR      12   8  84 S3        30.31S
DEL NORTE      FAIR      22   2  42 W7        30.31S WCI  13
LA VETA PASS   FAIR      16   3  57 SW29        N/A  WCI  -4
SAGUACHE       FAIR      23   7  50 SE6       30.31S WCI  16
$$

COZ035-036-038>040-151700-
...NORTHERN COLORADO FRONT RANGE...

CITY           SKY/WX    TMP DP  RH WIND       PRES   REMARKS
DENVER INTL AP FAIR      41   7  24 S15       30.01S
DMNS CITY PARK NOT AVBL
AURORA         MOSUNNY   40   8  27 S10       30.03S
FRONT RANGE AP MOSUNNY   45  10  24 S13       30.03R
ERIE MUNI ARPT FAIR      28  21  76 CALM      30.06F
BOULDER MUN AP FAIR      34  21  60 CALM      30.00S
CENTENNIAL     FAIR      42  10  27 SW9       30.03S
BROOMFIELD     MOSUNNY   46  10  23 VRB3      30.02S
FORT COLLINS   FAIR      27  23  85 CALM      30.01S
LONGMONT       FAIR      29  21  70 CALM      30.02F
$$

COZ041-046-047-076>085-087-088-151700-
...PIKES PEAK/PALMER DIVIDE AND SOUTHERN FOOTHILLS...

CITY           SKY/WX    TMP DP  RH WIND       PRES   REMARKS
COLO. SPRINGS  FAIR      39  20  46 N5        30.08S
A. F. ACADEMY  FAIR      30  16  55 N7        30.08S WCI  23
SCHRIEVER AFB  FAIR      40   7  25 N3        30.08S
CHEYENNE MTN   FAIR      41   2  19 CALM      30.03S
ELLICOTT         N/A    N/A N/A N/A N3        30.06S
FALCON         FAIR      38   5  25 W8        30.10R
FORT CARSON    FAIR      31  21  67 NW8       30.06S WCI  23
LIMON          FAIR      28  20  71 N5        30.07R WCI  23
MONUMENT HILL  FAIR      34   9  35 SW10      30.09R WCI  26
CANON CITY     FAIR      39   7  26 W14G22    30.11R
WALSENBURG     FAIR      43   7  22 W15G25    30.11S
TRINIDAD       FAIR      36  11  35 W14       30.12F
$$

COZ042>045-048>051-090-091-151700-
...NORTHEAST COLORADO...

CITY           SKY/WX    TMP DP  RH WIND       PRES   REMARKS
GREELEY ARPT   FAIR      20  14  77 CALM      30.04R
AKRON          FAIR      34  12  40 SW13      30.01S WCI  25
BURLINGTON     FAIR      34  21  59 SW10      30.05S WCI  26
WRAY           FAIR      30  19  64 W8        30.01F WCI  23
YUMA           FAIR      34  14  44 SW9       30.01F WCI  26
STERLING       FAIR      23  18  80 S9        30.02R WCI  13
HOLYOKE        FAIR      34  25  69 SW8       29.99S WCI  27
FORT MORGAN    FAIR      22  19  89 W8        30.03S WCI  12
$$

COZ086-089-092>099-151700-
...SOUTHEAST COLORADO...

CITY           SKY/WX    TMP DP  RH WIND       PRES   REMARKS
PUEBLO         FAIR      22  18  85 CALM      30.10F
LA JUNTA       FAIR      27  20  75 W9        30.11F WCI  18
LAMAR          FAIR      27  22  81 W14       30.11F WCI  16
SPRINGFIELD      N/A     33  26  75 W5        30.12R WCI  29
$$




USA.gov is the U.S. government's official web portal to all federal, state and local government web resources and services.